Dewpoint
41 42 43 43 43 43 42 41 40 40 41 42 42 43 43 44 45 43 41 43 40 36 35 38 37 37 35 34 32 34 33 33 31 29 29 27 25 23 22 21 20 21 22 22 24 23 19 17 17 17 18 12 13 13
41 41 42 42 42 42 41 41 41 41 40 40 41 42 42 43 44 44 40 42 44 39 34 38 38 38 37 36 35 35 33 32 33 31 31 29 28 27 24 20 22 20 22 21 23 21 18 16 18 18 13 12 11 13
40 40 40 41 42 42 42 41 41 40 40 41 41 40 39 41 43 44 41 40 40 33 33 33 35 38 35 37 42 35 33 36 34 34 31 29 27 28 21 22 19 19 21 21 20 21 20 12 12 13 12 11 12 13
39 39 40 40 41 41 41 41 41 40 40 40 40 40 40 40 42 43 41 40 38 34 28 31 34 34 34 35 38 40 36 36 35 35 30 29 27 31 26 23 22 20 19 19 18 18 10 10 9 11 11 11 11 11
38 38 39 39 39 40 41 41 40 40 40 40 40 40 40 40 40 43 42 41 40 33 29 29 31 32 31 34 35 37 37 33 32 29 29 27 29 28 23 21 18 17 18 17 17 18 18 18 12 10 11 10 12 11
37 37 37 38 39 39 40 39 39 39 39 40 40 40 40 39 40 41 34 38 40 38 32 24 29 27 28 33 35 35 35 33 33 31 29 29 28 28 22 20 21 16 16 18 18 13 14 10 8 9 11 11 12 12
40 39 38 38 38 38 39 39 39 39 40 40 40 40 39 39 40 35 31 32 42 40 31 25 24 27 28 30 30 30 31 30 31 30 27 27 25 28 24 17 19 19 16 13 10 9 9 9 8 9 10 12 16 14
40 40 40 39 40 41 41 41 41 41 42 41 41 40 40 40 39 37 38 40 41 35 33 25 16 20 29 25 24 29 27 28 28 27 25 23 23 24 18 18 17 11 13 11 11 11 10 11 11 12 13 13 12 12
40 40 40 39 40 41 41 41 40 40 41 41 42 40 39 35 32 33 40 39 37 35 28 21 13 12 27 23 24 25 27 21 25 20 21 22 19 16 17 17 17 13 11 12 12 11 10 10 11 11 11 10 10 11
40 37 36 35 35 38 41 41 43 44 43 45 40 33 27 30 38 38 34 31 30 29 28 21 23 17 21 21 21 19 22 20 12 18 22 19 15 16 16 15 15 16 15 14 11 11 11 11 10 9 10 11 10 11
36 33 37 39 37 41 45 46 45 43 40 33 28 23 32 36 30 27 21 22 19 15 24 21 19 17 23 15 18 22 18 19 12 12 15 9 9 8 8 9 11 9 13 11 12 13 12 11 11 11 11 12 12 13
33 34 37 37 39 39 39 40 38 34 33 31 29 29 28 24 17 18 15 16 15 12 18 14 17 21 23 26 21 22 16 15 8 6 4 1 4 11 8 5 8 8 11 12 12 12 12 13 13 11 11 12 13 13
35 34 33 36 37 38 38 35 34 32 27 27 24 20 18 7 11 13 6 4 7 15 16 16 16 20 21 23 19 17 12 11 12 4 1 0 7 10 4 6 10 10 10 12 13 13 12 11 15 9 7 13 12 11
33 33 33 33 32 33 32 31 30 24 21 19 16 8 9 12 3 7 8 10 17 19 19 19 17 18 19 15 16 10 10 8 -4 -13 -7 -0 6 7 6 10 10 10 9 9 11 13 12 12 11 13 14 12 11 12
32 34 34 32 31 29 29 27 25 21 21 13 14 8 7 10 8 12 13 17 17 21 20 17 16 16 12 10 9 8 4 -4 -5 -6 2 9 12 8 10 12 11 9 5 3 4 6 7 8 8 9 11 11 12 13
30 31 32 33 29 28 25 23 20 16 7 6 6 1 11 10 11 13 14 13 17 16 15 12 8 7 6 6 2 3 -1 -6 -0 4 9 11 12 11 11 12 12 7 5 6 2 7 10 8 8 10 9 9 10 11
31 27 32 31 27 25 25 19 15 2 -0 -3 3 14 5 2 2 7 8 13 11 9 1 -6 -14 -12 -8 -11 -11 -7 -10 -1 7 10 13 10 7 6 6 9 11 12 10 8 1 4 7 6 -1 -4 4 9 10 11
25 27 30 29 21 20 14 10 3 -1 -0 2 5 8 12 8 9 10 13 14 8 -3 -4 -7 -5 -13 -13 -15 -7 -0 5 6 9 8 8 9 6 6 9 10 11 11 10 8 4 6 -0 -1 3 7 7 8 7 7
27 27 28 27 22 14 5 3 3 -5 -2 7 11 11 13 12 11 9 9 8 1 1 -2 -9 -8 -12 -1 2 1 2 0 1 2 6 5 6 6 7 8 9 9 8 8 8 7 8 9 7 8 9 10 10 10 10
26 28 26 24 19 8 -1 -1 4 -1 -7 3 4 -0 3 5 4 -4 -6 -1 -2 -8 -3 -8 2 6 4 2 9 9 9 7 3 4 5 6 3 1 5 6 8 9 9 8 8 14 11 10 10 10 10 10 9 9
22 24 22 15 6 3 -1 -13 -3 -2 -3 -3 -7 -3 -6 -7 -10 -11 -10 -4 -4 -11 -4 3 4 3 4 4 3 6 6 2 2 2 5 5 7 5 9 10 9 9 9 9 9 9 12 10 10 11 10 11 12 13
18 20 9 10 0 -5 -3 1 -2 -1 -4 -10 -10 -11 -16 -14 -17 -14 -10 -7 -8 -0 3 -1 -1 1 4 1 2 -2 1 -2 1 3 11 11 7 7 8 8 9 8 9 8 8 8 8 10 11 12 12 12 15 16
16 11 2 1 -0 -3 -5 -3 -6 -9 -7 -10 -15 -12 -14 -17 -13 -8 -9 -9 -1 4 1 -1 -1 -6 -1 1 -1 2 4 4 6 6 6 7 8 9 9 9 9 9 8 9 11 12 12 15 16 16 17 17 17 16
11 -3 -6 -11 -8 -8 -12 -11 -11 -11 -14 -13 -16 -12 -14 -17 -11 -11 -10 -4 5 4 1 -4 -5 1 4 4 1 5 7 7 9 9 10 10 8 8 10 11 12 13 13 13 13 13 13 13 16 16 16 16 16 16
0 -4 -6 -9 -16 -8 -11 -12 -13 -8 -13 -20 -15 -12 -14 -15 -15 -17 -10 -3 -4 -2 0 4 6 6 5 5 6 7 10 12 9 8 9 12 11 11 11 12 13 14 15 14 13 13 14 15 16 16 16 16 15 15
-7 -10 -9 -9 -9 -7 -10 -11 -14 -15 -15 -14 -14 -12 -15 -12 -10 -7 1 4 5 6 6 6 5 4 4 7 7 7 9 12 12 9 9 13 13 12 11 10 10 11 15 17 16 15 15 16 16 15 14 14 19 15
-10 -12 -4 4 3 -1 -4 -4 -5 -9 -18 -15 -13 -9 -9 -10 -7 1 6 7 7 8 9 9 8 6 6 7 9 10 13 13 13 13 15 16 16 16 15 12 10 13 17 18 18 16 15 15 14 13 12 13 14 16
-9 -7 -10 -9 -11 -11 -15 -15 -15 -16 -11 -4 -3 -7 -6 -2 -1 5 7 10 10 9 9 9 10 10 9 10 11 11 12 14 15 15 15 16 16 16 16 17 17 20 20 20 17 16 16 13 12 11 12 12 13 15
-6 -2 -3 -12 -16 -13 -15 -13 -10 -2 -1 -5 -7 -0 1 7 7 6 9 10 10 8 6 6 7 9 9 11 12 14 14 13 11 9 8 9 10 12 16 16 16 17 17 17 20 16 13 13 12 12 12 13 14 15
-9 -3 -9 -18 -13 -11 -12 -10 -13 -10 -4 -2 -2 1 5 7 8 11 9 8 5 5 6 6 8 7 6 7 7 9 11 15 16 13 10 10 11 14 15 15 15 16 17 16 15 16 19 15 15 12 11 11 11 10
-6 -9 -12 -13 -13 -14 -13 -12 -13 -4 -11 -15 -10 -9 -2 2 7 10 9 8 7 6 6 6 5 6 6 6 7 6 7 14 17 17 18 16 15 15 15 16 16 17 16 16 15 15 14 13 13 12 12 12 13 12
-10 -19 -14 -10 -13 -15 -17 -18 -18 -16 -18 -16 -12 -13 -8 -2 2 6 9 7 4 3 7 6 3 3 7 9 10 14 18 15 16 21 17 16 15 16 16 17 17 16 15 14 13 13 13 13 12 12 12 11 12 12
-23 -23 -24 -19 -17 -16 -18 -17 -15 -16 -17 -18 -15 -13 -13 -7 -4 4 9 9 6 5 5 5 7 8 8 11 14 15 17 16 20 26 26 24 23 20 16 16 16 15 14 13 13 12 11 11 10 9 9 9 9 9
Lifted_Index
2 1 1 1 1 1 2 2 2 2 3 3 3 3 3 3 3 4 4 5 4 4 4 4 4 3 3 2 2 1 1 1 1 1 1 1 1 1 1 1 1 1 1 2 2 1 1 1 2 2 2 2 2 3
2 2 1 1 1 1 2 2 2 2 2 2 3 3 3 3 3 3 3 3 3 3 3 4 4 3 2 2 1 1 1 1 1 1 1 1 1 1 1 1 1 1 1 2 2 2 1 1 2 2 2 2 2 3
2 2 2 1 1 1 1 1 1 1 1 2 2 3 3 3 2 2 2 2 2 2 2 3 3 3 2 1 1 1 1 1 1 1 1 1 1 1 1 1 1 1 2 2 2 2 2 1 2 2 2 2 3 3
2 2 2 2 1 0 -0 -0 -0 0 0 0 1 2 2 3 2 1 1 2 2 2 2 3 3 2 2 2 1 1 1 1 1 1 1 1 2 2 2 1 1 1 2 2 2 2 2 2 2 2 2 3 3 3
2 2 2 2 1 0 -0 -0 -0 -0 -0 -0 -0 0 1 2 1 1 1 1 2 2 2 2 2 2 2 2 2 1 2 2 1 1 1 1 2 2 2 1 1 2 2 2 2 2 2 2 2 3 3 3 4 4
2 2 2 2 1 1 0 0 0 0 -0 -0 -0 -0 0 0 1 1 1 1 2 2 2 2 2 2 2 2 2 2 2 2 1 1 1 1 2 2 2 2 2 2 2 2 2 2 2 3 3 3 4 4 4 5
2 2 2 2 2 2 1 1 1 1 0 0 0 -0 -0 -0 0 0 1 1 1 1 1 2 2 2 2 2 3 2 2 2 1 1 1 1 2 2 2 2 2 3 3 3 3 3 3 3 4 5 5 5 5 6
2 2 3 3 3 3 2 2 2 1 1 1 0 0 0 0 0 1 1 1 1 1 1 1 2 2 2 2 2 2 2 2 2 2 1 2 2 2 2 3 3 3 3 3 4 4 4 5 5 6 6 7 7 7
3 3 4 4 4 4 4 3 2 2 2 1 0 0 1 1 1 1 1 1 1 1 1 1 1 2 2 2 2 2 2 2 2 2 2 2 2 2 3 3 3 4 4 4 5 5 6 6 7 7 8 8 8 8
5 5 5 6 6 5 4 2 1 1 2 1 1 1 2 2 2 2 1 1 1 1 2 2 1 2 2 2 2 2 3 2 2 3 3 2 2 3 4 4 5 5 5 6 6 7 7 8 8 9 9 9 9 9
6 6 6 6 6 4 2 1 1 1 2 2 2 2 3 3 2 2 1 1 1 2 2 2 2 2 2 2 2 3 3 2 2 3 3 2 3 4 5 6 7 7 7 8 8 9 9 9 10 10 11 11 11 11
7 7 7 7 6 5 3 2 2 3 3 3 3 3 4 3 2 2 2 2 2 2 2 2 2 3 4 4 4 3 3 3 4 4 3 3 4 6 7 8 8 9 9 9 10 10 10 11 11 11 12 12 12 12
7 8 8 8 7 6 5 4 4 5 4 4 3 4 3 3 2 2 2 2 3 3 3 3 3 4 5 5 5 4 4 4 5 4 4 5 7 8 9 9 10 10 10 10 10 11 11 11 11 11 12 12 12 12
8 8 8 9 9 8 8 8 7 7 5 4 4 3 3 3 3 4 4 4 5 5 5 5 5 6 6 6 6 5 5 5 5 4 5 7 9 10 10 10 10 10 11 11 11 11 11 11 11 11 12 12 13 13
8 9 9 9 10 10 10 10 10 9 7 6 5 4 4 4 4 5 6 6 7 7 7 7 6 6 6 6 6 5 5 5 5 5 7 9 10 10 11 11 11 11 11 11 11 11 11 11 11 11 12 12 12 13
8 9 10 10 11 11 11 11 11 10 9 8 7 6 6 6 6 7 8 8 8 8 8 7 7 6 6 6 6 6 5 5 6 8 9 10 10 10 11 11 11 11 11 11 11 11 11 11 11 12 12 12 12 13
9 10 11 11 12 12 12 11 11 10 10 9 9 9 9 9 9 9 9 10 10 9 9 8 7 7 7 7 6 7 7 7 8 9 9 10 10 10 10 10 11 11 11 11 11 11 11 11 11 12 12 12 12 13
11 11 12 12 12 12 12 11 11 10 10 10 10 10 11 11 11 11 11 11 10 10 9 9 8 8 7 7 7 8 8 8 9 9 9 9 10 10 10 10 10 10 10 10 10 10 11 11 11 11 11 12 12 12
12 12 12 12 12 11 11 11 11 10 10 10 11 11 11 11 11 10 10 10 10 10 9 9 8 8 8 8 8 8 8 9 9 9 9 9 9 10 10 10 10 10 10 10 10 10 10 11 11 11 11 12 11 11
13 13 12 12 12 11 11 11 11 11 10 10 10 10 10 9 9 9 9 9 9 8 8 8 8 8 8 8 9 8 9 9 8 8 8 8 9 9 9 10 10 10 10 10 10 10 11 11 11 11 12 12 11 11
12 12 12 12 11 11 11 11 10 10 10 9 9 9 8 8 8 8 8 7 7 7 7 7 7 8 8 9 9 9 9 9 9 8 8 8 9 9 9 10 11 11 11 11 11 11 11 11 12 12 12 12 12 12
12 12 11 11 10 10 10 9 9 8 8 8 7 7 7 7 7 7 7 6 7 7 7 7 8 8 8 9 9 9 9 9 9 9 10 10 10 10 10 11 11 11 11 11 12 12 12 12 12 12 12 12 12 12
11 10 10 9 9 8 8 8 7 7 6 6 6 6 6 6 6 6 6 6 6 7 8 8 8 8 9 9 9 10 10 10 10 10 11 11 11 11 12 12 12 12 12 13 13 13 12 13 13 12 12 12 11 11
9 9 8 8 7 7 6 6 6 6 6 6 6 5 5 5 5 5 5 5 6 7 8 8 9 9 9 9 10 10 11 11 11 11 12 12 12 12 13 13 14 14 14 14 13 13 13 13 13 12 12 11 11 10
8 7 7 6 6 6 5 5 5 5 5 5 5 5 5 5 4 4 4 5 6 7 8 9 9 9 9 9 10 11 11 12 12 12 13 13 13 13 13 13 14 14 14 14 13 13 13 12 12 12 11 11 10 10
6 6 6 5 5 5 5 5 5 5 5 5 5 5 5 4 4 4 5 6 7 8 9 9 9 9 10 10 11 11 12 13 13 13 14 14 14 14 14 13 13 14 15 15 14 13 13 12 12 12 12 11 11 10
5 5 5 5 5 5 5 5 5 5 4 4 4 4 4 4 4 6 7 9 9 10 10 11 11 11 11 11 12 13 13 14 14 14 14 15 15 15 14 14 14 14 15 15 15 14 13 13 13 12 12 12 11 11
5 5 5 5 5 5 5 5 5 5 5 5 4 4 4 5 6 8 9 10 11 11 11 11 12 12 12 12 13 13 14 14 14 14 13 13 14 14 15 15 15 16 16 16 15 15 14 14 14 13 12 12 11 11
5 5 5 5 5 5 5 5 5 5 6 6 5 5 6 7 9 10 11 11 11 11 11 11 12 12 12 12 13 13 14 14 13 12 11 11 12 14 15 16 16 16 16 16 16 16 15 15 14 14 13 12 12 12
5 5 5 5 5 5 5 6 6 7 7 7 6 6 7 8 10 11 12 12 11 11 11 11 11 12 12 12 12 13 13 14 13 12 11 11 12 14 15 15 16 16 17 17 17 16 16 15 15 14 14 13 12 12
5 5 5 5 5 5 6 6 6 7 7 7 7 7 7 8 10 11 12 12 11 11 11 11 11 11 12 12 12 13 13 14 14 13 13 12 13 14 14 15 16 16 17 18 17 17 16 15 15 14 14 13 13 13
5 5 5 5 5 6 6 6 6 6 6 6 6 7 7 8 9 10 12 12 11 11 11 11 11 12 12 13 13 13 13 14 14 13 13 13 13 14 14 15 15 16 17 17 17 17 16 16 15 15 14 14 14 14
5 5 5 5 5 5 6 6 5 6 6 6 6 7 7 7 8 10 12 12 12 11 11 11 12 12 13 13 13 14 14 14 14 13 13 13 13 14 14 14 15 15 16 16 17 17 16 16 16 15 15 15 15 15